This is the latest recevied weather packets stored in our database for station/object VU35KB-13. If no packets are shown the sender has not sent any weather packets the latest 10 day(s).
| Time | Temp. | Humidity | Pressure | Rain* | Wind** | Luminosity | Snow |
|---|---|---|---|---|---|---|---|
| 1787717307 | 26.11° C | 75% | 911.5 hPa | - | - | - | - |
| 1787716403 | 25.56° C | 75% | 911.6 hPa | - | - | - | - |
| 1787715499 | 25.56° C | 76% | 911.5 hPa | - | - | - | - |
| 1787714595 | 25.56° C | 78% | 911.5 hPa | - | - | - | - |
| 1787713691 | 25.56° C | 78% | 911.4 hPa | - | - | - | - |
| 1787712787 | 25.56° C | 79% | 911.2 hPa | - | - | - | - |
| 1787711882 | 25° C | 80% | 911 hPa | - | - | - | - |
| 1787710978 | 25.56° C | 81% | 910.8 hPa | - | - | - | - |
| 1787710074 | 25.56° C | 78% | 910.6 hPa | - | - | - | - |
| 1787709170 | 25.56° C | 78% | 910.4 hPa | - | - | - | - |
| 1787708266 | 26.11° C | 79% | 910.3 hPa | - | - | - | - |
| 1787707362 | 26.11° C | 79% | 910.2 hPa | - | - | - | - |
| 1787706458 | 26.67° C | 82% | 910.1 hPa | - | - | - | - |
| 1787705554 | 26.67° C | 78% | 909.9 hPa | - | - | - | - |
| 1787704649 | 26.67° C | 76% | 909.7 hPa | - | - | - | - |
| 1787703745 | 26.67° C | 76% | 909.6 hPa | - | - | - | - |
| 1787702841 | 26.67° C | 76% | 909.5 hPa | - | - | - | - |
| 1787701938 | 26.67° C | 76% | 909.4 hPa | - | - | - | - |
| 1787701033 | 26.67° C | 76% | 909.4 hPa | - | - | - | - |
| 1787700130 | 26.67° C | 76% | 909.2 hPa | - | - | - | - |
| 1787699225 | 26.67° C | 76% | 909.2 hPa | - | - | - | - |
| 1787698321 | 26.67° C | 76% | 909.2 hPa | - | - | - | - |
| 1787697417 | 26.67° C | 76% | 909.1 hPa | - | - | - | - |
| 1787696513 | 26.67° C | 76% | 909 hPa | - | - | - | - |
| 1787695609 | 26.67° C | 76% | 909.2 hPa | - | - | - | - |
* Rain since midnight (hover to see other rain measurements)
** Current wind speed in m/s (hover to see current wind gust speed)